period_start,C,m1,H,J0,J1,J2,J3,J4,J5,JA,JB,JC,JD,JJ,JK,JN,#
2015-10-14 00:03:15,-0.00,2.15,0.00,20.59,26.30,30.00,14.83,48.19,1019.66,2039.06,2830.00,2674.65,2908.00,600.26,603.00,41.45,0000 0000 0000 0000 000000
2015-10-14 00:08:16,-0.01,2.15,0.00,20.58,26.29,30.00,14.84,48.29,1019.62,2039.10,2830.01,2674.83,2908.00,600.18,602.91,41.50,0000 0000 0000 0000 000000
2015-10-14 00:13:17,-0.00,2.15,0.00,20.57,26.28,30.00,14.72,48.21,1019.56,2039.09,2830.02,2674.88,2908.01,599.52,602.19,41.55,0000 0000 0000 0000 000000
2015-10-14 00:18:19,0.00,2.15,0.00,20.57,26.27,29.99,14.87,48.12,1019.58,2039.05,2830.00,2674.63,2908.00,599.95,602.72,41.60,0000 0000 0000 0000 000000
2015-10-14 00:23:20,0.00,2.15,0.00,20.57,26.27,30.02,14.77,48.02,1019.59,2039.06,2830.00,2674.54,2908.00,599.83,602.51,41.65,0000 0000 0000 0000 000000
2015-10-14 00:28:21,-0.00,2.15,0.00,20.57,26.27,30.00,14.74,47.98,1019.57,2039.08,2830.00,2674.74,2908.00,600.04,602.83,41.71,0000 0000 0000 0000 000000
2015-10-14 00:33:23,-0.00,2.15,0.00,20.54,26.27,30.00,14.82,48.02,1019.58,2039.07,2830.01,2674.79,2908.00,599.89,602.64,41.76,0000 0000 0000 0000 000000
2015-10-14 00:38:24,0.00,2.15,0.00,20.53,26.27,30.02,14.86,48.23,1019.61,2039.12,2830.05,2674.95,2908.02,600.08,602.92,41.81,0000 0000 0000 0000 000000
2015-10-14 00:43:25,-0.00,2.15,0.00,20.54,26.27,29.98,14.64,48.10,1019.58,2039.04,2830.04,2674.89,2908.00,599.47,602.48,41.86,0000 0000 0000 0000 000000
2015-10-14 00:48:27,0.00,2.15,0.00,20.54,26.27,29.98,14.74,48.16,1019.72,2039.05,2830.02,2674.79,2908.01,600.09,603.03,41.91,0000 0000 0000 0000 000000
2015-10-14 00:53:28,0.01,2.15,0.00,20.54,26.27,30.00,14.83,48.10,1019.74,2039.05,2830.01,2674.63,2908.00,599.85,602.76,41.96,0000 0000 0000 0000 000000
2015-10-14 00:58:29,0.00,2.15,0.00,20.56,26.26,29.96,14.82,48.07,1019.86,2039.04,2830.00,2674.37,2908.00,600.17,602.91,42.01,0000 0000 0000 0000 000000
2015-10-14 01:03:30,-0.01,2.15,0.00,20.57,26.25,29.97,14.96,48.10,1019.98,2039.05,2830.02,2674.55,2908.00,600.32,603.27,42.06,0000 0000 0000 0000 000000
2015-10-14 01:08:32,0.00,2.15,0.00,20.57,26.25,29.94,14.74,47.99,1020.02,2039.02,2830.02,2674.52,2908.00,599.92,602.98,42.11,0000 0000 0000 0000 000000
2015-10-14 01:13:33,0.00,2.15,0.00,20.54,26.25,30.03,14.76,48.10,1020.00,2039.04,2830.01,2674.54,2908.00,599.94,602.96,42.16,0000 0000 0000 0000 000000
2015-10-14 01:18:35,0.00,2.15,0.00,20.54,26.25,30.00,14.76,48.15,1019.98,2039.02,2830.00,2674.26,2908.00,599.80,602.83,42.21,0000 0000 0000 0000 000000
2015-10-14 01:23:36,-0.00,2.15,0.00,20.54,26.25,30.02,14.76,48.06,1020.02,2039.07,2830.00,2674.43,2908.00,599.70,602.80,42.26,0000 0000 0000 0000 000000
2015-10-14 01:28:37,0.01,2.15,0.00,20.54,26.25,29.98,14.82,47.96,1020.01,2039.15,2830.00,2674.53,2908.00,600.01,603.07,42.31,0000 0000 0000 0000 000000
2015-10-14 01:33:39,0.01,2.15,0.00,20.57,26.25,29.98,14.79,47.93,1019.99,2039.25,2830.00,2674.67,2908.01,600.04,603.01,42.36,0000 0000 0000 0000 000000
2015-10-14 01:38:40,-0.01,2.15,0.00,20.57,26.25,29.97,14.82,47.89,1020.01,2039.19,2830.00,2674.46,2908.00,600.02,602.95,42.41,0000 0000 0000 0000 000000
2015-10-14 01:43:41,0.01,2.15,0.00,20.57,26.25,29.97,14.81,47.94,1019.92,2039.18,2829.99,2674.28,2908.00,599.88,602.80,42.46,0000 0000 0000 0000 000000
2015-10-14 01:48:43,0.00,2.15,0.00,20.59,26.25,29.97,14.80,47.85,1020.00,2039.17,2829.99,2674.15,2908.00,600.05,602.96,42.51,0000 0000 0000 0000 000000
2015-10-14 01:53:44,0.00,2.15,0.00,20.59,26.25,29.95,14.82,47.99,1020.02,2039.15,2829.98,2674.06,2908.00,600.07,603.09,42.57,0000 0000 0000 0000 000000
2015-10-14 01:58:45,-0.00,2.15,0.00,20.60,26.25,29.96,14.78,47.92,1020.03,2039.15,2829.98,2674.07,2907.99,600.02,603.10,42.62,0000 0000 0000 0000 000000
2015-10-14 02:03:47,-0.00,2.15,0.00,20.61,26.25,29.95,14.85,47.95,1020.03,2039.14,2829.98,2674.05,2907.99,599.93,602.82,42.67,0000 0000 0000 0000 000000
2015-10-14 02:08:48,0.00,2.15,0.00,20.62,26.25,29.92,14.72,48.04,1020.02,2039.11,2829.93,2674.01,2907.96,600.03,602.87,42.72,0000 0000 0000 0000 000000
2015-10-14 02:13:49,-0.00,2.15,0.00,20.62,26.26,29.93,14.70,48.02,1020.02,2039.10,2829.89,2674.00,2907.97,599.70,602.62,42.77,0000 0000 0000 0000 000000
2015-10-14 02:18:50,0.01,2.15,0.00,20.63,26.27,29.96,14.80,48.19,1020.03,2039.16,2829.86,2674.00,2907.97,599.85,602.67,42.82,0000 0000 0000 0000 000000
2015-10-14 02:23:51,-0.00,2.15,0.00,20.64,26.27,29.93,14.84,47.92,1020.02,2039.13,2829.85,2674.00,2907.90,599.96,602.79,42.87,0000 0000 0000 0000 000000
2015-10-14 02:28:53,0.01,2.15,0.00,20.65,26.27,29.91,14.77,48.13,1020.01,2039.12,2829.54,2674.00,2907.62,599.89,602.71,42.92,0000 0000 0000 0000 000000
2015-10-14 02:33:54,0.01,2.15,0.00,20.65,26.27,29.92,14.78,48.10,1020.03,2039.08,2829.30,2674.00,2907.32,600.17,602.98,42.97,0000 0000 0000 0000 000000
2015-10-14 02:38:55,-0.00,2.15,0.00,20.66,26.27,29.97,14.83,48.15,1020.03,2039.06,2829.10,2673.99,2907.09,600.05,602.75,43.02,0000 0000 0000 0000 000000
2015-10-14 02:43:56,0.01,2.15,0.00,20.67,26.29,29.95,14.73,48.13,1020.02,2039.05,2829.03,2673.98,2907.03,599.65,602.43,43.07,0000 0000 0000 0000 000000
2015-10-14 02:48:57,0.00,2.15,0.00,20.68,26.30,29.95,14.80,48.09,1020.03,2039.03,2829.02,2673.93,2907.02,599.97,602.80,43.12,0000 0000 0000 0000 000000
2015-10-14 02:53:58,0.02,2.15,0.00,20.69,26.30,29.94,14.81,48.00,1020.03,2039.01,2828.99,2673.25,2907.00,599.88,602.65,43.17,0000 0000 0000 0000 000000
2015-10-14 02:59:00,0.00,2.15,0.00,20.72,26.30,29.95,14.76,47.97,1020.02,2039.01,2828.99,2673.11,2907.00,599.90,602.64,43.22,0000 0000 0000 0000 000000
2015-10-14 03:04:01,0.00,2.15,0.00,20.72,26.31,29.98,14.76,47.98,1020.03,2039.02,2828.99,2673.11,2907.00,599.94,602.68,43.27,0000 0000 0000 0000 000000
2015-10-14 03:09:02,0.00,2.15,0.00,20.74,26.32,29.94,14.72,48.00,1020.03,2039.02,2828.99,2673.05,2906.99,599.55,602.34,43.32,0000 0000 0000 0000 000000
2015-10-14 03:14:04,0.00,2.15,0.00,20.75,26.32,29.96,14.82,48.15,1020.03,2039.01,2828.98,2673.04,2906.97,600.03,602.65,43.37,0000 0000 0000 0000 000000
2015-10-14 03:19:05,0.00,2.15,0.00,20.77,26.34,29.94,14.87,48.05,1020.03,2039.00,2828.98,2673.00,2906.97,600.30,602.86,43.42,0000 0000 0000 0000 000000
2015-10-14 03:24:06,0.00,2.15,0.00,20.80,26.35,29.93,14.75,47.97,1020.03,2039.00,2828.96,2673.00,2906.97,599.93,602.39,43.48,0000 0000 0000 0000 000000
2015-10-14 03:29:07,0.00,2.15,0.00,20.80,26.35,29.98,14.78,48.03,1020.03,2039.00,2828.96,2673.00,2906.94,599.92,602.52,43.53,0000 0000 0000 0000 000000
2015-10-14 03:34:09,0.00,2.15,0.00,20.77,26.35,30.01,14.82,48.30,1020.03,2039.00,2828.93,2673.00,2906.92,600.44,602.90,43.58,0000 0000 0000 0000 000000
2015-10-14 03:39:10,0.01,2.15,0.00,20.77,26.37,30.00,14.82,48.18,1020.03,2039.00,2828.88,2673.00,2906.75,600.29,602.79,43.63,0000 0000 0000 0000 000000
2015-10-14 03:44:11,0.00,2.15,0.00,20.79,26.37,30.00,14.87,48.23,1020.03,2039.00,2828.82,2673.00,2906.71,600.22,602.73,43.68,0000 0000 0000 0000 000000
2015-10-14 03:49:12,0.01,2.15,0.00,20.81,26.38,29.99,14.78,48.02,1020.03,2039.00,2828.83,2673.00,2906.57,600.00,602.42,43.73,0000 0000 0000 0000 000000
2015-10-14 03:54:14,0.01,2.15,0.00,20.83,26.40,29.99,14.84,48.23,1020.03,2039.00,2828.45,2672.99,2906.14,599.97,602.41,43.78,0000 0000 0000 0000 000000
2015-10-14 03:59:15,0.00,2.15,0.00,20.84,26.40,30.01,14.86,48.31,1020.03,2039.00,2828.27,2672.97,2906.06,600.33,602.85,43.83,0000 0000 0000 0000 000000
2015-10-14 04:04:16,-0.01,2.15,0.00,20.87,26.41,29.99,14.70,48.07,1020.03,2038.99,2828.30,2672.99,2906.06,599.59,601.98,43.88,0000 0000 0000 0000 000000
2015-10-14 04:09:17,0.00,2.15,0.00,20.88,26.42,29.98,14.78,48.10,1020.03,2038.98,2828.19,2672.97,2906.02,600.02,602.37,43.93,0000 0000 0000 0000 000000
2015-10-14 04:14:19,0.00,2.15,0.00,20.90,26.42,30.01,14.77,48.17,1020.03,2038.98,2828.05,2672.90,2906.00,600.09,602.52,43.98,0000 0000 0000 0000 000000
2015-10-14 04:19:20,0.01,2.15,0.00,20.92,26.44,29.95,14.77,48.23,1020.03,2038.97,2828.02,2672.70,2906.00,600.05,602.47,44.03,0000 0000 0000 0000 000000
2015-10-14 04:24:21,-0.00,2.15,0.00,20.92,26.45,29.98,14.75,48.03,1020.03,2038.95,2828.02,2672.62,2906.00,600.24,602.54,44.08,0000 0000 0000 0000 000000
2015-10-14 04:29:22,0.00,2.15,0.00,20.89,26.45,29.99,14.72,48.17,1020.03,2038.94,2828.02,2672.58,2906.00,599.77,601.99,44.13,0000 0000 0000 0000 000000
2015-10-14 04:34:23,0.01,2.15,0.00,20.90,26.47,30.03,14.82,48.22,1020.03,2038.89,2828.00,2672.17,2906.00,600.07,602.25,44.18,0000 0000 0000 0000 000000
2015-10-14 04:39:25,-0.00,2.15,0.00,20.92,26.47,30.06,14.79,48.05,1020.03,2038.80,2828.00,2672.06,2905.96,600.24,602.56,44.23,0000 0000 0000 0000 000000
2015-10-14 04:44:26,-0.02,2.15,0.00,20.94,26.48,30.04,14.78,48.17,1020.03,2038.59,2827.99,2672.00,2905.69,599.82,602.02,44.28,0000 0000 0000 0000 000000
2015-10-14 04:49:27,-0.02,2.15,0.00,20.95,26.50,30.08,14.72,48.27,1020.03,2038.20,2827.99,2672.00,2905.25,599.87,602.08,44.33,0000 0000 0000 0000 000000
2015-10-14 04:54:28,0.00,2.15,0.00,20.94,26.50,30.07,14.79,48.18,1020.03,2038.10,2827.98,2672.00,2905.09,599.97,602.16,44.38,0000 0000 0000 0000 000000
2015-10-14 04:59:29,-0.00,2.15,0.00,20.92,26.50,30.11,14.75,48.23,1020.04,2038.09,2827.97,2672.00,2905.05,599.80,601.87,44.44,0000 0000 0000 0000 000000
2015-10-14 05:04:31,-0.00,2.15,0.00,20.93,26.52,30.13,14.69,48.23,1020.04,2038.07,2827.95,2672.00,2905.04,600.06,602.32,44.49,0000 0000 0000 0000 000000
2015-10-14 05:09:32,-0.00,2.15,0.00,20.94,26.52,30.15,14.77,48.32,1020.04,2038.03,2827.83,2671.98,2905.01,600.00,602.30,44.54,0000 0000 0000 0000 000000
2015-10-14 05:14:33,0.00,2.15,0.00,20.94,26.52,30.16,14.75,48.18,1020.04,2038.06,2827.94,2671.98,2905.03,600.08,602.37,44.59,0000 0000 0000 0000 000000
2015-10-14 05:19:35,0.00,2.15,0.00,20.93,26.52,30.18,14.80,48.16,1020.04,2038.04,2827.86,2671.98,2905.01,599.99,602.15,44.64,0000 0000 0000 0000 000000
2015-10-14 05:24:36,0.00,2.15,0.00,20.92,26.54,30.21,14.79,48.17,1020.04,2038.01,2827.75,2671.98,2905.00,600.05,602.23,44.69,0000 0000 0000 0000 000000
2015-10-14 05:29:37,-0.00,2.15,0.00,20.92,26.55,30.21,14.75,48.22,1020.04,2038.02,2827.68,2671.97,2905.01,600.02,602.30,44.74,0000 0000 0000 0000 000000
2015-10-14 05:34:38,-0.00,2.15,0.00,20.92,26.55,30.22,14.76,48.10,1020.04,2038.01,2827.71,2671.96,2905.01,599.91,602.13,44.79,0000 0000 0000 0000 000000
2015-10-14 05:39:40,-0.00,2.15,0.00,20.89,26.55,30.20,14.79,48.05,1020.03,2038.01,2827.79,2671.94,2905.00,599.91,602.28,44.84,0000 0000 0000 0000 000000
2015-10-14 05:44:41,0.00,2.15,0.00,20.89,26.55,30.27,14.79,48.08,1020.03,2038.00,2827.91,2671.96,2905.00,600.10,602.34,44.89,0000 0000 0000 0000 000000
2015-10-14 05:49:42,0.00,2.15,0.00,20.89,26.55,30.27,14.73,47.93,1020.03,2038.01,2827.87,2671.93,2905.00,599.66,602.04,44.94,0000 0000 0000 0000 000000
2015-10-14 05:54:43,0.00,2.15,0.00,20.90,26.55,30.24,14.92,48.07,1020.04,2038.00,2827.84,2671.93,2905.01,600.35,602.57,44.99,0000 0000 0000 0000 000000
2015-10-14 05:59:44,-0.00,2.15,0.00,20.87,26.55,30.25,14.71,48.04,1020.04,2038.01,2827.88,2671.95,2905.00,599.76,602.12,45.04,0000 0000 0000 0000 000000
2015-10-14 06:04:46,0.00,2.15,0.00,20.87,26.56,30.25,14.76,48.20,1020.04,2038.00,2827.91,2671.95,2905.00,600.22,602.59,45.09,0000 0000 0000 0000 000000
2015-10-14 06:09:47,0.00,2.15,0.00,20.87,26.56,30.25,14.84,48.14,1020.05,2038.00,2827.90,2671.93,2905.00,600.23,602.60,45.14,0000 0000 0000 0000 000000
2015-10-14 06:14:48,0.00,2.15,0.00,20.87,26.57,30.25,14.85,48.17,1020.05,2038.00,2827.92,2671.90,2905.00,600.13,602.53,45.19,0000 0000 0000 0000 000000
2015-10-14 06:19:49,0.00,2.15,0.00,20.85,26.56,30.25,14.83,48.24,1020.04,2038.00,2827.74,2671.85,2905.00,600.15,602.46,45.24,0000 0000 0000 0000 000000
2015-10-14 06:24:51,0.00,2.15,0.00,20.82,26.56,30.26,14.77,48.23,1020.04,2038.00,2827.72,2671.78,2905.00,599.97,602.42,45.30,0000 0000 0000 0000 000000
2015-10-14 06:29:52,-0.01,2.15,0.00,20.82,26.56,30.24,14.87,48.19,1020.05,2038.00,2827.80,2671.77,2905.00,600.24,602.68,45.35,0000 0000 0000 0000 000000
2015-10-14 06:34:53,0.02,2.15,0.00,20.84,26.56,30.24,14.87,48.23,1020.04,2038.00,2827.53,2671.49,2904.99,600.53,602.90,45.40,0000 0000 0000 0000 000000
2015-10-14 06:39:54,-0.01,2.15,0.00,20.84,26.55,30.24,14.83,47.98,1020.05,2038.00,2827.69,2671.58,2904.99,600.33,602.87,45.45,0000 0000 0000 0000 000000
2015-10-14 06:44:56,0.03,2.15,0.00,20.81,26.55,30.21,14.82,48.10,1020.06,2038.00,2827.15,2671.12,2904.95,600.16,602.68,45.50,0000 0000 0000 0000 000000
2015-10-14 06:49:57,0.00,2.15,0.00,20.80,26.55,30.23,14.77,48.14,1020.05,2038.00,2827.10,2671.13,2904.97,600.03,602.59,45.55,0000 0000 0000 0000 000000
2015-10-14 06:54:58,0.00,2.15,0.00,20.81,26.55,30.22,14.74,48.14,1020.07,2038.00,2827.06,2671.09,2904.97,599.67,602.24,45.60,0000 0000 0000 0000 000000
2015-10-14 06:59:59,-0.00,2.15,0.00,20.82,26.55,30.23,14.82,48.13,1020.05,2038.00,2827.14,2671.09,2904.96,600.04,602.50,45.65,0000 0000 0000 0000 000000
2015-10-14 07:05:00,-0.00,2.15,0.00,20.79,26.55,30.23,14.82,48.28,1020.05,2038.00,2827.10,2671.06,2904.93,599.76,602.26,45.70,0000 0000 0000 0000 000000
2015-10-14 07:10:01,0.00,2.15,0.00,20.77,26.55,30.20,14.82,48.15,1020.05,2038.00,2827.08,2671.05,2904.84,600.43,602.96,45.75,0000 0000 0000 0000 000000
2015-10-14 07:15:03,0.00,2.15,0.00,20.77,26.54,30.16,14.83,48.07,1020.06,2038.00,2827.08,2671.04,2904.88,600.23,602.81,45.80,0000 0000 0000 0000 000000
2015-10-14 07:20:04,0.01,2.15,0.00,20.77,26.53,30.18,14.85,48.23,1020.08,2038.00,2827.03,2671.02,2904.61,599.94,602.47,45.85,0000 0000 0000 0000 000000
2015-10-14 07:25:05,0.00,2.15,0.00,20.76,26.52,30.22,14.87,48.16,1020.05,2038.00,2827.00,2671.00,2904.19,600.36,602.94,45.90,0000 0000 0000 0000 000000
2015-10-14 07:30:06,-0.00,2.15,0.00,20.74,26.52,30.17,14.87,48.17,1020.05,2038.00,2827.00,2671.00,2904.26,600.05,602.72,45.95,0000 0000 0000 0000 000000
2015-10-14 07:35:07,0.00,2.15,0.00,20.74,26.52,30.15,14.79,47.97,1020.06,2038.00,2827.00,2671.00,2904.12,599.82,602.62,46.00,0000 0000 0000 0000 000000
2015-10-14 07:40:08,0.00,2.15,0.00,20.74,26.52,30.14,14.74,48.03,1020.05,2038.00,2827.00,2671.01,2904.16,599.65,602.48,46.05,0000 0000 0000 0000 000000
2015-10-14 07:45:10,0.00,2.15,0.00,20.74,26.50,30.15,14.81,47.98,1020.11,2038.00,2827.00,2671.01,2904.14,599.85,602.75,46.10,0000 0000 0000 0000 000000
2015-10-14 07:50:11,0.00,2.15,0.00,20.73,26.50,30.16,14.79,48.02,1020.09,2038.00,2827.00,2671.00,2904.06,600.00,602.75,46.15,0000 0000 0000 0000 000000
2015-10-14 07:55:12,0.00,2.15,0.00,20.72,26.50,30.19,14.85,48.02,1020.09,2038.00,2827.00,2671.00,2904.03,600.09,602.89,46.20,0000 0000 0000 0000 000000
2015-10-14 08:00:13,0.00,2.15,0.00,20.70,26.49,30.16,14.89,47.96,1020.15,2038.00,2826.99,2671.00,2904.05,600.45,603.24,46.25,0000 0000 0000 0000 000000
2015-10-14 08:05:14,0.00,2.15,0.00,20.70,26.47,30.15,14.81,48.09,1020.11,2038.00,2826.98,2671.00,2904.02,599.94,602.69,46.31,0000 0000 0000 0000 000000
2015-10-14 08:10:15,0.00,2.15,0.00,20.71,26.47,30.12,14.77,48.02,1020.15,2038.00,2826.98,2671.00,2904.03,600.13,602.88,46.36,0000 0000 0000 0000 000000
2015-10-14 08:15:16,0.00,2.15,0.00,20.72,26.47,30.12,14.86,48.07,1020.17,2038.00,2826.95,2671.00,2904.01,600.07,602.84,46.41,0000 0000 0000 0000 000000
2015-10-14 08:20:18,0.00,2.16,0.00,20.71,26.45,30.12,14.89,47.98,1020.10,2038.02,2826.93,2670.99,2904.01,600.13,602.92,46.46,0000 0000 0000 0000 000000
2015-10-14 08:25:19,0.01,2.16,0.00,20.68,26.45,30.12,14.86,47.99,1020.07,2038.02,2826.57,2670.98,2904.00,600.46,603.18,46.51,0000 0000 0000 0000 000000
2015-10-14 08:30:20,0.00,2.16,0.00,20.67,26.45,30.15,14.78,47.88,1020.08,2038.00,2826.05,2670.95,2904.00,599.88,602.68,46.56,0000 0000 0000 0000 000000
2015-10-14 08:35:21,0.00,2.16,0.00,20.67,26.44,30.10,14.87,47.91,1020.14,2038.03,2826.01,2670.97,2903.99,599.97,602.93,46.61,0000 0000 0000 0000 000000
2015-10-14 08:40:23,-0.00,2.16,0.00,20.67,26.43,30.07,14.78,47.89,1020.14,2038.03,2826.00,2670.95,2903.99,599.85,602.80,46.66,0000 0000 0000 0000 000000
2015-10-14 08:45:24,0.00,2.16,0.00,20.67,26.42,30.09,14.84,48.02,1020.24,2038.02,2826.00,2670.86,2903.99,599.95,602.92,46.71,0000 0000 0000 0000 000000
2015-10-14 08:50:25,0.00,2.16,0.00,20.64,26.42,30.09,14.87,48.01,1020.33,2038.07,2826.00,2670.91,2903.99,600.26,603.28,46.76,0000 0000 0000 0000 000000
2015-10-14 08:55:27,0.00,2.16,0.00,20.62,26.41,30.11,14.80,48.07,1020.23,2038.16,2826.00,2670.93,2903.99,600.05,603.05,46.81,0000 0000 0000 0000 000000
2015-10-14 09:00:28,0.01,2.16,0.00,20.62,26.40,30.11,14.80,48.10,1020.14,2038.24,2826.00,2670.91,2903.99,600.07,602.88,46.86,0000 0000 0000 0000 000000
2015-10-14 09:05:29,0.01,2.16,0.00,20.62,26.40,30.06,14.82,48.00,1020.14,2038.19,2825.98,2670.61,2903.97,599.93,602.80,46.91,0000 0000 0000 0000 000000
2015-10-14 09:10:30,0.01,2.16,0.00,20.62,26.40,30.01,14.81,47.95,1020.19,2038.26,2825.96,2670.51,2903.97,600.15,603.08,46.96,0000 0000 0000 0000 000000
2015-10-14 09:15:32,0.04,2.16,0.00,20.62,26.38,30.03,14.80,48.08,1020.29,2038.68,2825.95,2670.61,2903.98,600.09,603.09,47.01,0000 0000 0000 0000 000000
2015-10-14 09:20:33,0.03,2.16,0.00,20.62,26.37,30.03,14.81,47.93,1020.36,2038.91,2825.69,2670.49,2903.98,600.14,603.23,47.06,0000 0000 0000 0000 000000
2015-10-14 09:25:35,0.02,2.16,0.00,20.59,26.37,30.05,14.84,47.98,1020.41,2038.91,2825.17,2670.17,2903.91,600.09,603.28,47.11,0000 0000 0000 0000 000000
2015-10-14 09:30:36,0.01,2.16,0.00,20.58,26.37,30.07,14.82,48.24,1020.18,2038.95,2825.04,2670.12,2903.91,600.36,603.36,47.16,0000 0000 0000 0000 000000
2015-10-14 09:35:37,0.00,2.16,0.00,20.58,26.35,30.02,14.82,48.08,1020.21,2038.97,2825.03,2670.08,2903.86,599.66,602.72,47.21,0000 0000 0000 0000 000000
2015-10-14 09:40:38,0.00,2.16,0.00,20.59,26.35,30.00,14.87,47.98,1020.11,2038.98,2825.00,2670.06,2903.80,600.29,603.32,47.27,0000 0000 0000 0000 000000
2015-10-14 09:45:39,0.00,2.16,0.00,20.59,26.35,30.02,14.79,47.89,1020.09,2038.98,2825.00,2670.04,2903.72,600.03,603.04,47.32,0000 0000 0000 0000 000000
2015-10-14 09:50:40,0.00,2.16,0.00,20.59,26.35,30.01,14.80,48.11,1020.05,2038.98,2825.00,2670.03,2903.59,600.14,603.22,47.37,0000 0000 0000 0000 000000
2015-10-14 09:55:41,0.01,2.16,0.00,20.57,26.34,30.04,14.79,47.93,1020.05,2038.99,2824.99,2670.01,2903.15,599.97,602.97,47.42,0000 0000 0000 0000 000000
2015-10-14 10:00:42,0.00,2.16,0.00,20.54,26.32,30.01,14.75,48.05,1020.04,2038.99,2824.97,2670.01,2903.05,599.97,603.04,47.47,0000 0000 0000 0000 000000
2015-10-14 10:05:43,0.00,2.16,0.00,20.54,26.32,29.99,14.82,48.13,1020.04,2038.98,2824.75,2669.99,2903.01,599.96,603.07,47.52,0000 0000 0000 0000 000000
2015-10-14 10:10:45,0.01,2.17,0.00,20.54,26.32,30.04,14.77,48.20,1020.05,2038.99,2824.24,2669.99,2903.00,599.70,603.08,47.57,0000 0000 0000 0000 000000
2015-10-14 10:15:46,0.00,2.17,0.00,20.55,26.32,29.99,14.85,48.04,1020.06,2038.99,2824.04,2669.97,2903.00,600.02,602.97,47.62,0000 0000 0000 0000 000000
2015-10-14 10:20:47,0.00,2.17,0.00,20.55,26.30,29.98,14.82,48.16,1020.11,2038.99,2824.00,2669.97,2902.99,600.11,603.20,47.67,0000 0000 0000 0000 000000
2015-10-14 10:25:49,0.00,2.17,0.00,20.55,26.30,29.99,14.79,48.12,1020.21,2038.99,2824.00,2669.96,2902.98,600.07,603.19,47.72,0000 0000 0000 0000 000000
2015-10-14 10:30:50,0.00,2.17,0.00,20.56,26.30,29.98,14.85,48.19,1020.24,2039.00,2824.00,2669.92,2902.97,600.11,603.20,47.77,0000 0000 0000 0000 000000
2015-10-14 10:35:51,0.00,2.17,0.00,20.57,26.30,30.01,14.89,48.15,1020.19,2039.00,2823.98,2669.85,2902.96,600.24,603.29,47.82,0000 0000 0000 0000 000000
2015-10-14 10:40:53,0.02,2.17,0.00,20.57,26.29,29.97,14.83,48.22,1020.15,2039.00,2823.85,2669.48,2902.76,600.30,603.39,47.87,0000 0000 0000 0000 000000
2015-10-14 10:45:54,0.03,2.17,0.00,20.54,26.28,30.01,14.84,48.02,1020.24,2039.01,2823.32,2669.17,2902.36,600.02,603.11,47.92,0000 0000 0000 0000 000000
2015-10-14 10:50:55,0.01,2.17,0.00,20.54,26.27,29.99,14.73,48.13,1020.37,2039.01,2823.04,2669.03,2902.05,599.31,602.60,47.97,0000 0000 0000 0000 000000
2015-10-14 10:55:57,0.00,2.17,0.00,20.54,26.27,29.96,14.85,48.08,1020.44,2039.00,2823.00,2669.00,2902.00,600.09,603.46,48.02,0000 0000 0000 0000 000000
2015-10-14 11:00:58,0.00,2.17,0.00,20.55,26.27,29.99,14.87,48.20,1020.34,2039.01,2822.99,2669.00,2902.00,600.04,603.25,48.08,0000 0000 0000 0000 000000
2015-10-14 11:05:59,0.00,2.17,0.00,20.57,26.27,29.98,14.81,48.08,1020.26,2039.01,2822.91,2669.00,2901.99,600.19,603.06,48.13,0000 0000 0000 0000 000000
2015-10-14 11:11:01,0.02,2.17,0.00,20.57,26.27,30.00,14.83,47.99,1020.19,2039.03,2822.49,2668.98,2901.98,599.76,602.88,48.18,0000 0000 0000 0000 000000
2015-10-14 11:16:02,0.01,2.17,0.00,20.57,26.27,29.97,14.82,48.02,1020.23,2039.05,2822.06,2668.90,2901.85,599.76,602.97,48.23,0000 0000 0000 0000 000000
2015-10-14 11:21:03,0.01,2.17,0.00,20.59,26.27,29.97,14.86,48.12,1020.27,2039.03,2822.00,2668.62,2901.48,599.89,602.95,48.28,0000 0000 0000 0000 000000
2015-10-14 11:26:05,0.01,2.17,0.00,20.58,26.26,29.97,14.78,48.05,1020.27,2039.02,2821.99,2668.22,2901.11,599.69,602.84,48.33,0000 0000 0000 0000 000000
2015-10-14 11:31:06,0.00,2.17,0.00,20.57,26.26,30.00,14.82,48.04,1020.26,2039.03,2821.94,2668.06,2901.02,600.08,603.21,48.38,0000 0000 0000 0000 000000
2015-10-14 11:36:07,0.01,2.17,0.00,20.57,26.25,29.97,14.88,48.17,1020.18,2039.03,2821.45,2668.00,2901.00,600.11,603.15,48.43,0000 0000 0000 0000 000000
2015-10-14 11:41:08,0.01,2.17,0.00,20.59,26.25,30.02,14.79,48.05,1020.20,2039.05,2821.14,2668.00,2901.00,599.89,602.89,48.48,0000 0000 0000 0000 000000
2015-10-14 11:46:10,0.00,2.17,0.00,20.59,26.25,30.02,14.79,48.14,1020.23,2039.05,2821.01,2667.99,2900.98,600.42,603.34,48.53,0000 0000 0000 0000 000000
2015-10-14 11:51:11,0.00,2.17,0.00,20.59,26.25,30.02,14.83,48.04,1020.09,2039.06,2821.00,2667.98,2900.93,599.91,602.92,48.58,0000 0000 0000 0000 000000
2015-10-14 11:56:12,0.02,2.18,0.00,20.59,26.25,29.99,14.73,48.12,1020.06,2039.07,2820.91,2667.86,2900.46,599.73,602.62,48.63,0000 0000 0000 0000 000000
2015-10-14 12:01:14,0.04,2.18,0.00,20.61,26.26,29.94,14.77,48.13,1020.06,2039.04,2820.20,2667.20,2900.03,599.88,602.86,48.68,0000 0000 0000 0000 000000
2015-10-14 12:06:15,0.00,2.18,0.00,20.62,26.26,29.96,14.80,48.06,1020.05,2039.06,2820.02,2667.03,2900.00,599.77,602.65,48.73,0000 0000 0000 0000 000000
2015-10-14 12:11:16,0.01,2.18,0.00,20.61,26.26,29.99,14.82,48.09,1020.04,2039.10,2820.00,2667.01,2899.99,599.93,602.84,48.78,0000 0000 0000 0000 000000
2015-10-14 12:16:18,-0.00,2.18,0.00,20.62,26.27,29.96,14.86,48.14,1020.04,2039.03,2819.90,2667.00,2899.94,600.18,602.99,48.83,0000 0000 0000 0000 000000
2015-10-14 12:21:19,0.02,2.18,0.00,20.62,26.27,30.01,14.94,48.06,1020.04,2039.08,2819.33,2666.98,2899.63,599.99,602.90,48.88,0000 0000 0000 0000 000000
2015-10-14 12:26:20,0.02,2.18,0.00,20.62,26.27,29.99,14.83,48.19,1020.04,2039.10,2819.01,2666.89,2899.09,599.78,602.72,48.93,0000 0000 0000 0000 000000
2015-10-14 12:31:22,0.02,2.18,0.00,20.62,26.27,30.00,14.83,48.21,1020.05,2039.13,2819.00,2666.53,2899.02,599.96,602.85,48.98,0000 0000 0000 0000 000000
2015-10-14 12:36:23,0.01,2.18,0.00,20.62,26.27,29.99,14.81,48.04,1020.04,2039.10,2818.89,2666.06,2899.00,599.95,602.77,49.04,0000 0000 0000 0000 000000
2015-10-14 12:41:24,0.01,2.18,0.00,20.62,26.27,29.96,14.74,48.08,1020.04,2039.04,2818.23,2666.00,2898.96,599.97,602.94,49.09,0000 0000 0000 0000 000000
2015-10-14 12:46:26,0.01,2.18,0.00,20.62,26.27,29.96,14.77,48.08,1020.04,2039.03,2818.01,2665.99,2898.53,599.96,602.92,49.14,0000 0000 0000 0000 000000
2015-10-14 12:51:27,0.00,2.18,0.00,20.62,26.27,29.97,14.81,47.94,1020.04,2039.04,2818.00,2665.96,2898.08,600.07,602.93,49.19,0000 0000 0000 0000 000000
2015-10-14 12:56:28,0.02,2.18,0.00,20.62,26.27,29.94,14.87,48.02,1020.05,2039.03,2817.72,2665.63,2898.00,600.17,602.90,49.24,0000 0000 0000 0000 000000